Regional Weather Roundup
Issued by NWS

Home | Current Version | Previous Version | Text Only | Print | Product List | Glossary Off
Versions: 1 2 3 4 5 6 7 8 9 10 11 12 13 14 15 16 17 18 19 20 21 22 23 24 25 26 27 28 29 30 31 32 33 34 35 36 37 38 39 40 41 42 43 44 45 46 47 48 49 50

000
ASUS43 KDMX 012007
RWRIA

WEATHER ROUNDUP FOR IOWA
NATIONAL WEATHER SERVICE DES MOINES IA
300 PM CDT FRI AUG 01 2014

NOTE: "FAIR" INDICATES FEW OR NO CLOUDS BELOW 12,000 FEET WITH NO
SIGNIFICANT WEATHER AND/OR OBSTRUCTIONS TO VISIBILITY.

* - THESE STATIONS ARE NOT NWS STATIONS...THUS NOT UNDER NWS
QUALITY CONTROL.  THEY ALSO DO NOT REPORT WEATHER SUCH
AS PRECIPITATION OR FOG.

IAZ001>003-012>014-020>022-031>034-043>046-012100-
   NORTHWEST IOWA

CITY           SKY/WX    TMP DP  RH WIND       PRES   REMARKS
CARROLL *      MOSUNNY   79  61  53 CALM      30.11S HX  80
CHEROKEE *     PTSUNNY   79  61  53 NW3       30.11S HX  80
DENISON *      SUNNY     79  61  53 VRB5      30.09F HX  80
LE MARS *      SUNNY     81  57  44 CALM      30.11F HX  81
ORANGE CITY *  PTSUNNY   81  54  39 CALM      30.11F HX  80
SHELDON *      PTSUNNY   79  59  50 VRB5      30.11S HX  80
SIOUX CITY     PTSUNNY   84  59  42 CALM      30.09F HX  84
SPENCER        SUNNY     83  56  39 CALM      30.11F HX  82
STORM LAKE *   MOSUNNY   79  63  57 E5        30.12S HX  80
$$

IAZ055>058-069>071-079>083-090>094-012100-
   SOUTHWEST IOWA

CITY           SKY/WX    TMP DP  RH WIND       PRES   REMARKS
ATLANTIC *     MOSUNNY   81  61  50 E7        30.09F HX  81
AUDUBON *      SUNNY     84  64  51 CALM      30.12S HX  86
CLARINDA *     PTSUNNY   81  63  54 VRB3      30.11S HX  82
COUNCIL BLFS * MOSUNNY   81  63  54 E6        30.09F HX  82
CRESTON *      CLOUDY    81  63  54 NE5       30.10S HX  82
HARLAN  *      PTSUNNY   77  64  65 CALM      30.14S
LAMONI         PTSUNNY   79  61  53 CALM      30.09F HX  80
RED OAK *      MOSUNNY   82  63  51 E5        30.09S HX  83
SHENANDOAH *   CLOUDY    82  63  51 SE5       30.10S HX  83
$$

IAZ047>049-059>061-072>074-084-012100-
   CENTRAL IOWA

CITY           SKY/WX    TMP DP  RH WIND       PRES   REMARKS
AMES           MOSUNNY   81  57  43 E3        30.09S HX  81
ANKENY *       SUNNY     82  61  47 NE7       30.09S HX  83
CHARITON *     MOSUNNY   81  61  50 NE5       30.09S HX  81
DES MOINES     MOSUNNY   84  61  45 NE6       30.08S HX  84
GRINNELL*      PTSUNNY   79  61  53 CALM      30.10S HX  80
KNOXVILLE *    MOSUNNY   81  61  50 NE6       30.08S HX  81
MARSHALLTOWN   MOSUNNY   81  59  47 E5        30.09S HX  81
PELLA *        SUNNY     81  61  50 N5        30.09F HX  81
PERRY *          N/A     81  63  54 S3        30.09F HX  82
$$

IAZ004>006-015-016-023>025-035-036-012100-
   NORTH CENTRAL IOWA

CITY           SKY/WX    TMP DP  RH WIND       PRES   REMARKS
ALGONA *       MOSUNNY   81  61  50 W8        30.10F HX  81
CLARION *      SUNNY     81  57  44 CALM      30.10F HX  81
ESTHERVILLE    SUNNY     80  60  50 NW7       30.10F HX  81
FORT DODGE *   SUNNY     79  57  47 N3        30.11S HX  80
MASON CITY     MOSUNNY   80  61  52 N6        30.10F HX  81
FOREST CITY *  CLOUDY    79  61  53 CALM      30.10F HX  80
IOWA FALLS *     N/A     81  57  44 W3        30.11S HX  81
$$

IAZ007>011-017>019-026>030-037>042-050>054-066-012100-
   NORTHEAST IOWA

CITY           SKY/WX    TMP DP  RH WIND       PRES   REMARKS
CEDAR RAPIDS   MOSUNNY   81  61  50 NW3       30.07S HX  82
CHARLES CITY * SUNNY     81  61  50 W7        30.10S HX  81
CLINTON *      MOSUNNY   79  59  50 CALM      30.09F HX  80
DECORAH *      MOSUNNY   81  57  44 CALM      30.08S HX  81
DUBUQUE        MOSUNNY   79  59  50 VRB3      30.08F HX  80
MONTICELLO *   PTSUNNY   81  59  47 CALM      30.07F HX  81
OELWEIN *      SUNNY     79  59  50 CALM      30.09F HX  80
WATERLOO       MOSUNNY   84  58  40 N6        30.07F HX  83
$$

IAZ064-065-067-068-078-012100-
   EAST CENTRAL IOWA

CITY           SKY/WX    TMP DP  RH WIND       PRES   REMARKS
DAVENPORT      MOSUNNY   80  60  50 CALM      30.07F HX  81
IOWA CITY      MOSUNNY   82  64  54 N8        30.08F HX  83
MT. PLEASANT * MOSUNNY   84  61  45 S3        30.07S HX  84
MUSCATINE *    MOSUNNY   84  57  39 W7        30.06F HX  83
QUAD CITIES    MOSUNNY   82  61  48 VRB5      30.06F HX  83
$$

IAZ062-063-075>077-085>089-095>099-012100-
   SOUTHEAST IOWA

CITY           SKY/WX    TMP DP  RH WIND       PRES   REMARKS
BURLINGTON     MOSUNNY   82  61  48 SE5       30.06F HX  83
FAIRFIELD *    MOSUNNY   81  61  50 CALM      30.08S HX  81
FORT MADISON * MOSUNNY   82  59  44 CALM      30.07F HX  82
KEOKUK *       MOSUNNY   82  64  54 W6        30.06S HX  84
OSKALOOSA *      N/A     79  63  57 CALM      30.09S HX  80
CENTERVILLE *  PTSUNNY   77  64  65 E8        30.10S
OTTUMWA        MOSUNNY   83  61  47 N3        30.06F HX  83
WASHINGTON *   SUNNY     82  63  51 VRB5      30.07F HX  83
$$

ABBREVIATIONS USED IN REMARKS
   TC - TEMPERATURES IN CELSIUS
  WCI - WIND CHILL INDEX
   HX - HEAT INDEX
  VSB - VISIBILITY
$$




USA.gov is the U.S. government's official web portal to all federal, state and local government web resources and services.